Location: Augustenthal
(51.7167°N, 10.2833°E)
Time: 18:38:26
(UTC+00:00)

Cosmos 2098 - Pass Details

Date: 18 May 2021
Orbit: 387 x 1585 km, 82.9° (Epoch: 21 June)

Event Time Altitude Azimuth Distance (km) Brightness Sun altitude
Rises 21:51:37 0° 350° (N) 2,296 9.7 -16.2°
Reaches altitude 10° 21:53:32 10° 350° (N) 1,441 8.2 -16.3°
Maximum altitude 21:56:33 89° 76° (ENE) 421 4.1 -16.5°
Enters shadow 21:57:27 44° 170° (S) 597 4.5 -16.5°
